Change the Weather History Date:

Wednesday, January 18, 2012

  Actual Average Record
Temperature  
Mean Temperature 26 °F 28 °F  
Max Temperature 35 °F 36 °F 69 °F (1929)
Min Temperature 17 °F 21 °F -16 °F (1994)
Degree Days  
Heating Degree Days 39 37  
Month to date heating degree days 592 662  
Since 1 July heating degree days 2429 2837  
Cooling Degree Days 0 0  
Month to date cooling degree days 0 0  
Year to date cooling degree days 0 0  
Moisture  
Dew Point 18 °F    
Average Humidity 68    
Maximum Humidity 81    
Minimum Humidity 55    
Precipitation  
Precipitation 0.03 in 0.09 in 0.71 in (1915)
Month to date precipitation 1.84 1.59  
Year to date precipitation 1.84 1.59  
Snow  
Snow 0.50 in 0.30 in 4.70 in (2009)
Month to date snowfall 7.9 6.5  
Since 1 July snowfall 10.7 17.2  
Snow Depth 0.00 in    
Sea Level Pressure  
Sea Level Pressure 30.13 in    
Wind  
Wind Speed 10 mph (NW)    
Max Wind Speed 30 mph    
Max Gust Speed 36 mph    
Visibility 8 miles    
Events Snow    
T = Trace of Precipitation, MM = Missing Value Source: NWS Daily Summary

Daily Weather History Graph

Daily Weather History Graph

Search for Another Location

Airport or City:

Trip Planner

Search our weather history database for the weather conditions in past years. The results will help you decide how hot, cold, wet, or windy it might be!

Date:

Astronomy

Jan. 18, 2012 Rise Set
Actual Time 7:40 AM EST 5:21 PM EST
Civil Twilight 7:11 AM EST 5:51 PM EST
Nautical Twilight 6:37 AM EST 6:24 PM EST
Astronomical Twilight 6:05 AM EST 6:57 PM EST
Moon 3:08 AM EST (1/18) 12:59 PM EST (1/18)
Length of Visible Light 10h 40m
Length of Day
9h 40m
Waning Crescent, 25% of the Moon is Illuminated
Jan 18
Waning Crescent
Jan 23
New
Jan 30
First Quarter
Feb 7
Full
Feb 14
Last Quarter

Hourly Weather History & Observations

Time (EST) Temp. Windchill Dew Point Humidity Pressure Visibility Wind Dir Wind Speed Gust Speed Precip Events Conditions
12:51 AM 34.0 °F 22.4 °F 25.0 °F 70% 29.95 in 10.0 mi West 20.7 mph 32.2 mph 0.00 in   Overcast
1:51 AM 33.1 °F 22.2 °F 25.0 °F 72% 29.97 in 10.0 mi West 17.3 mph 26.5 mph 0.00 in Snow Light Snow
2:51 AM 30.9 °F 19.1 °F 23.0 °F 72% 29.99 in 10.0 mi West 18.4 mph 27.6 mph 0.00 in   Mostly Cloudy
3:51 AM 30.0 °F 18.7 °F 23.0 °F 75% 30.02 in 8.0 mi West 16.1 mph - 0.00 in Snow Light Snow
4:51 AM 28.4 °F 14.7 °F 21.2 °F 74% 30.00 in 10.0 mi WNW 21.9 mph 27.6 mph N/A Snow Light Snow
5:07 AM 28.4 °F 15.1 °F 23.0 °F 80% 30.01 in 2.0 mi WNW 20.7 mph - 0.00 in Snow Light Snow
5:32 AM 26.6 °F 13.4 °F 21.2 °F 80% 30.02 in 7.0 mi NW 18.4 mph 23.0 mph 0.00 in Snow Light Snow
5:44 AM 26.6 °F 14.3 °F 21.2 °F 80% 30.02 in 9.0 mi NW 16.1 mph - 0.00 in Snow Light Snow
5:51 AM 27.0 °F 14.3 °F 19.9 °F 75% 30.07 in 8.0 mi NW 17.3 mph - 0.00 in Snow Light Snow
6:51 AM 27.0 °F 14.3 °F 19.9 °F 75% 30.11 in 6.0 mi NW 17.3 mph 20.7 mph 0.00 in Snow Light Snow
7:22 AM 26.6 °F 13.1 °F 17.6 °F 69% 30.07 in 9.0 mi WNW 19.6 mph 25.3 mph 0.00 in Snow Light Snow
7:42 AM 26.6 °F 14.3 °F 15.8 °F 64% 30.08 in 9.0 mi WNW 16.1 mph 25.3 mph 0.00 in   Overcast
7:51 AM 26.1 °F 14.5 °F 16.0 °F 66% 30.14 in 10.0 mi WNW 13.8 mph 24.2 mph 0.00 in   Mostly Cloudy
8:51 AM 26.1 °F 12.7 °F 12.0 °F 55% 30.18 in 9.0 mi NNW 18.4 mph 25.3 mph 0.00 in Snow Light Snow
9:51 AM 26.1 °F 13.6 °F 12.0 °F 55% 30.21 in 9.0 mi NW 16.1 mph - 0.00 in Snow Light Snow
10:51 AM 27.0 °F 17.3 °F 16.0 °F 63% 30.23 in 6.0 mi NNW 10.4 mph - 0.00 in Snow Light Snow
11:27 AM 26.6 °F 16.2 °F 17.6 °F 69% 30.17 in 1.5 mi NNW 11.5 mph - 0.00 in Snow Light Snow
11:51 AM 25.0 °F 16.3 °F 19.9 °F 81% 30.23 in 1.0 mi North 8.1 mph - 0.00 in Snow Light Snow
12:26 PM 24.8 °F 12.9 °F 17.6 °F 74% 30.17 in 0.5 mi NW 13.8 mph - 0.00 in Snow Snow
12:51 PM 24.1 °F 14.4 °F 19.9 °F 84% 30.22 in 0.5 mi WNW 9.2 mph - 0.00 in Snow Light Snow
1:08 PM 24.8 °F 16.9 °F 19.4 °F 80% 30.16 in 1.5 mi WNW 6.9 mph - 0.00 in Snow Light Snow
1:14 PM 24.8 °F 15.3 °F 19.4 °F 80% 30.15 in 6.0 mi WNW 9.2 mph - 0.00 in Snow Light Snow
1:51 PM 26.1 °F 16.2 °F 16.0 °F 66% 30.21 in 6.0 mi NNW 10.4 mph - 0.00 in Snow Light Snow
2:16 PM 26.6 °F 15.7 °F 15.8 °F 64% 30.13 in 10.0 mi NW 12.7 mph - 0.00 in   Mostly Cloudy
2:51 PM 26.1 °F 15.6 °F 17.1 °F 69% 30.19 in 8.0 mi North 11.5 mph - 0.00 in Snow Light Snow
3:51 PM 25.0 °F 18.1 °F 12.9 °F 60% 30.20 in 7.0 mi WNW 5.8 mph - 0.00 in Snow Light Snow
4:51 PM 25.0 °F 18.1 °F 12.9 °F 60% 30.22 in 10.0 mi NNW 5.8 mph - 0.00 in   Mostly Cloudy
5:51 PM 24.1 °F 18.2 °F 12.0 °F 60% 30.21 in 10.0 mi North 4.6 mph - N/A   Scattered Clouds
6:51 PM 21.9 °F - 14.0 °F 72% 30.22 in 10.0 mi Calm Calm - N/A   Scattered Clouds
7:51 PM 21.0 °F - 15.1 °F 78% 30.21 in 10.0 mi Calm Calm - N/A   Mostly Cloudy
8:51 PM 21.9 °F 17.2 °F 12.9 °F 68% 30.19 in 10.0 mi NE 3.5 mph - N/A   Mostly Cloudy
9:51 PM 19.9 °F - 12.9 °F 74% 30.17 in 10.0 mi Calm Calm - N/A   Mostly Cloudy
10:51 PM 19.0 °F - 14.0 °F 81% 30.17 in 10.0 mi Calm Calm - N/A   Mostly Cloudy
11:51 PM 18.0 °F - 14.0 °F 84% 30.17 in 10.0 mi Calm Calm - N/A   Mostly Cloudy